Погода в Дачном

Россия / Республика Северная Осетия — Алания     43°05′04″N   44°44′08″E
темп.,
°C
ветер,
м/с
пор.,
м/с
влажн.,
%
обл.,
%
осадки,
мм/ч
давл.,
гПа
погр.,
м
6 марта, сб
сб600:00+1ю22540 0.0 102027
03:00+1ю33540 0.0 102130
06:00+1ю324933 0.0 102127
09:00+7ю225040 0.0 101968
12:00+12с22340 0.0 1016765
15:00+12всв22400 0.0 1014843
18:00+6ю3354100 0.0 101569
21:00+4ю3349100 0.0 101580
7 марта, вс
вс700:00+3ю3351100 0.0 101565
03:00+2ю2254100 0.0 101635
06:00−1сз479873 1.6 1020487
09:00−2сз239286 4.6 1022400
12:00−3ссз3487100 2.1 1021552
15:00−2с2267100 2.9 1021885
18:00−4всв117292 0.1 1022291
21:00−5юв127574 0.1 1023167
8 марта, пн
пн800:00−5юв01740 0.0 102381
03:00−6юз11780 0.0 102390
06:00−6з11810 0.0 1022117
09:00−3с11712 0.0 1021480
12:000ссв226263 0.0 1018759
15:00+1ссв226069 0.1 1016867
18:00−2св127175 0.1 1016275
21:00−2юв128788 0.1 1018198
9 марта, вт
вт900:00−3ююв118399 0.1 1018150
03:00−3ююз018597 0.2 101869
06:00−4ю018790 0.0 101863
09:000с117580 0.0 1018515
12:00+2с116692 0.1 1016806
15:00+2ссв126295 0.3 1016956
18:000всв117288 0.2 1018306
21:00−1зюз128894 0.4 1021131
10 марта, ср
ср1000:00−2зсз0293100 3.5 1023153
03:00−4с1397100 8.5 1024242
06:00−6св1198100 2.0 102591
09:00−4ссв118699 2.2 1024448
12:00−2ссв238486 0.1 1021704
15:00−1св248393 0.4 1019712
18:00−4всв2590100 0.2 1019268
21:00−5вюв1391100 0.2 1019187